Regional Weather Roundup
Issued by NWS

Home | Current Version | Previous Version | Graphics & Text | Print | Product List | Glossary On
Versions: 1 2 3 4 5 6 7 8 9 10 11 12 13 14 15 16 17 18 19 20 21 22 23 24 25 26 27 28 29 30 31 32 33 34 35 36 37 38 39 40 41 42 43 44 45 46 47 48 49 50
000
ASUS43 KLOT 240600
RWRIL

ILLINOIS REGIONAL WEATHER ROUNDUP
NATIONAL WEATHER SERVICE CHICAGO/ROMEOVILLE IL
100 AM CDT THU APR 24 2014

NOTE: "FAIR" INDICATES FEW OR NO CLOUDS BELOW 12,000 FEET WITH NO
SIGNIFICANT WEATHER AND/OR OBSTRUCTIONS TO VISIBILITY.

* THESE STATIONS ARE NOT UNDER NWS QUALITY CONTROL. THEY ALSO MAY NOT
  REPORT WEATHER SUCH AS PRECIPITATION OR FOG.

ILZ001-002-007-009-015-016-024-240700-
NORTHWEST ILLINOIS

CITY           SKY/WX    TMP DP  RH WIND       PRES   REMARKS
MOLINE         MOCLDY    47  39  74 E14       29.95R
6HR MIN TEMP:  47; 6HR MAX TEMP:  49; 6HR PCP:  0.01;

STERLING*      MOCLDY    43  34  70 E13       30.00R
$$

ILZ003-004-008-010-011-017-018-240700-
NORTH CENTRAL ILLINOIS

CITY           SKY/WX    TMP DP  RH WIND       PRES   REMARKS
ROCKFORD       CLOUDY    40  29  64 E10       30.06S
6HR MIN TEMP:  40; 6HR MAX TEMP:  52; 6HR PCP:  0.07;

$$

ILZ005-006-012>014-019>023-240700-
NORTHEAST ILLINOIS

CITY           SKY/WX    TMP DP  RH WIND       PRES   REMARKS
CHICAGO-OHARE  LGT RAIN  40  29  64 N8        30.08R
6HR MIN TEMP:  40; 6HR MAX TEMP:  44; 6HR PCP:  0.02;

CHICAGO-MIDWAY LGT RAIN  41  33  73 NE7       30.07R
6HR MIN TEMP:  41; 6HR MAX TEMP:  45; 6HR PCP:  0.01;

AURORA         CLOUDY    40  32  73 NE14      30.05R
6HR MIN TEMP:  40; 6HR MAX TEMP:  50; 6HR PCP:  0.05;

WAUKEGAN       LGT RAIN  35  29  78 NE3       30.08R
6HR MIN TEMP:  35; 6HR MAX TEMP:  40; 6HR PCP:  0.02;

DUPAGE AIRPORT CLOUDY    39  32  76 NE6       30.07R WCI  35
6HR MIN TEMP:  39; 6HR MAX TEMP:  47; 6HR PCP: TRACE;

WHEELING       LGT RAIN  39  30  70 N3        30.10R
6HR MIN TEMP:  39; 6HR MAX TEMP:  42; 6HR PCP:  0.01;

NORTHERLY ISL    N/A     40  30  68 MISG        N/A
$$

LMZ740>746-240700-
SOUTHERN LAKE MICHIGAN

STATION/POSITION SKY/WX   TEMP    WIND        PRES    VSBY  WAVE
                          AIR SEA DIR/SP/G                  HT/PER
                          (F)     (DEG/KT/KT) (MB)    (MI)  (FT/S)
WAUKEGAN HARBOR            37      30/  5/  6 1020.3S
HARRISON CRIB              38      90/ 10/ 12   N/A
BURNHAM HARBOR             40     360/  5/ 12   N/A
CALUMET HARBOR             42      60/  6/  7 1018.0R
MICHIGAN CITY              43      80/  5/  9   N/A
$$

ILZ025>027-034>036-040-047-049-050-058-095>099-240700-
WEST-CENTRAL ILLINOIS

CITY           SKY/WX    TMP DP  RH WIND       PRES   REMARKS
QUINCY         FAIR      53  33  46 SE17G25   29.88S
$$

ILZ028>032-037-038-041>044-048-051>054-059>061-240700-
CENTRAL ILLINOIS

CITY           SKY/WX    TMP DP  RH WIND       PRES   REMARKS
DECATUR        FAIR      53  33  46 SE10      29.98F
PEORIA         FAIR      53  36  52 E7        29.97F
6HR MIN TEMP:  53; 6HR MAX TEMP:  55; 6HR PCP: TRACE;

SPRINGFIELD    FAIR      55  31  39 SE13      29.95F
6HR MIN TEMP:  54; 6HR MAX TEMP:  61;

TAYLORVILLE    NOT AVBL
$$

ILZ033-039-045-046-055>057-062-063-240700-
EAST-CENTRAL ILLINOIS

CITY           SKY/WX    TMP DP  RH WIND       PRES   REMARKS
CHAMPAIGN      MOCLDY    51  37  58 SE10      30.00S
MATTOON        FAIR      52  32  46 SE9       30.00R
$$

ILZ079-100>102-240700-
SOUTHWEST ILLINOIS

CITY           SKY/WX    TMP DP  RH WIND       PRES   REMARKS
BELLEVILLE     FAIR      51  38  61 SE8       29.95F
CAHOKIA*       FAIR      54  36  50 SE10      29.94F
$$

ILZ064>066-069>071-074>076-080>082-084>086-088>090-092>094-240700-
SOUTH-CENTRAL ILLINOIS

CITY           SKY/WX    TMP DP  RH WIND       PRES   REMARKS
CARBONDALE     FAIR      50  38  63 E5        29.99S
6HR MIN TEMP:  49; 6HR MAX TEMP:  62;

MT. VERNON     FAIR      52  30  43 E3        30.00F
$$

ILZ067-068-072-073-078-083-087-091-240700-
SOUTHEAST ILLINOIS

CITY           SKY/WX    TMP DP  RH WIND       PRES   REMARKS
ROBINSON*      FAIR      51  38  60 SE6       30.03S
$$

ABBREVIATIONS USED IN REMARKS
   TC - TEMPERATURE IN CELSIUS
  WCI - WIND CHILL INDEX
   HX - HEAT INDEX
  VSB - VISIBILITY
$$




USA.gov is the U.S. government's official web portal to all federal, state and local government web resources and services.